[[[{"header":{"parameterUnit":"kt","parameterCategory":2,"dx":1,"dy":1,"la1":30.253999710083008,"la2":30.299108505249023,"lo1":-89.0895004272461,"lo2":-89.04439544677734,"nx":28,"ny":28,"refTime":"2022-09-20T09:00:00:Z","depth":0,"parameterNumber":1,"parameterNumberName":"U-component_of_WINDS"},"data":[-3.9923,-4.005,-4.005,-4.0195,-4.0218,-4.0317,-4.0351,-4.0396,-4.0431,-4.0547,-4.0614,-4.0624,-4.0656,-4.0734,-4.0804,-4.0806,-4.0837,-4.0886,-4.088,-4.0664,-4.0634,-4.0605,-4.0576,-4.0893,-4.0893,-4.1104,-4.1106,-4.1108,-3.9776,-3.9802,-3.9877,-3.9948,-4.0013,-3.9968,-4.002,-4.0076,-4.0164,-4.0207,-4.027,-4.0371,-4.045,-4.0463,-4.0538,-4.0597,-4.0578,-4.0618,-4.0613,-4.0619,-4.0388,-4.0357,-4.0633,-4.0632,-4.0632,-4.0632,-4.0632,-4.0632,-3.9508,-3.9583,-3.9625,-3.9705,-3.974,-3.9788,-3.9859,-3.9868,-3.994,-4.0016,-3.9997,-4.0095,-4.0134,-4.0219,-4.0245,-4.0322,-4.0275,-4.0317,-4.0327,-4.0338,-4.0353,-4.0055,-4.0333,-4.0332,-4.0331,-4.0331,-4.033,0,-3.931,-3.9304,-3.9373,-3.9444,-3.9502,-3.9554,-3.9601,-3.9645,-3.9624,-3.9683,-3.9768,-3.9816,-3.9911,-3.999,-4.0056,-4.0073,-4.0026,-4.002,-4.0048,-4.0061,-4.0066,-4.0067,-3.9694,-4.001,-4.0008,-4.0006,-4.0004,-4.0003,-3.9041,-3.9126,-3.9165,-3.9215,-3.9238,-3.9317,-3.9363,-3.9337,-3.9387,-3.944,-3.9506,-3.9584,-3.9644,-3.9779,-3.9783,-3.9852,-3.9829,-3.9952,-3.9839,-3.985,-3.9834,-3.9829,-3.9839,-3.9974,-3.9977,-3.9981,-3.9983,0,-3.889,-3.8882,-3.9012,-3.9039,-3.9049,-3.914,-3.9163,-3.9234,-3.9232,-3.933,-3.9352,-3.9347,-3.9429,-3.9413,-3.95,-3.949,-3.9643,-3.9618,-3.9631,-3.9626,-3.9736,-3.9726,-4.0088,-4.0136,-3.9805,-3.9808,-3.9811,0,-3.8656,-3.8768,-3.8749,-3.8824,-3.8949,-3.8918,-3.9042,-3.9051,-3.9081,-3.9158,-3.9101,-3.9174,-3.914,-3.9211,-3.9194,-3.9316,-3.9331,-3.933,-3.9324,-3.9335,-3.9336,-3.9359,-3.9344,-3.9304,-3.9302,-3.93,-3.9299,0,-3.842,-3.8538,-3.8661,-3.8686,-3.8722,-3.8781,-3.8798,-3.8829,-3.8872,-3.8925,-3.8953,-3.9016,-3.9051,-3.9102,-3.9079,-3.9004,-3.9225,-3.9116,-3.9224,-3.9225,-3.9272,-3.927,-3.9596,-3.9297,-3.9296,-3.9295,-3.9295,0,-3.8228,-3.8283,-3.8461,-3.849,-3.8522,-3.8601,-3.8662,-3.8725,-3.8761,-3.8755,-3.8796,-3.8754,-3.8855,-3.875,-3.889,-3.8798,-3.8837,-3.8843,-3.8851,-3.8858,-3.874,-3.8928,-3.9239,-3.9272,-3.8868,-3.8864,-3.8861,0,-3.7963,-3.8137,-3.811,-3.8278,-3.8356,-3.8287,-3.8375,-3.8407,-3.8406,-3.8471,-3.8469,-3.8542,-3.8459,-3.8479,-3.8551,-3.855,-3.8669,-3.8534,-3.863,-3.8634,-3.8625,-3.8911,-3.8962,-3.9173,-3.8815,-3.882,-3.8823,0,-3.7754,-3.7794,-3.7826,-3.7853,-3.7888,-3.7951,-3.8051,-3.8116,-3.8161,-3.82,-3.8284,-3.8384,-3.8327,-3.8359,-3.8329,-3.8404,-3.8588,-3.8331,-3.8331,-3.838,-3.8789,-3.8838,-3.8873,-3.8552,-3.8557,-3.8562,-3.8787,0,-3.7472,-3.7554,-3.7638,-3.7694,-3.7739,-3.784,-3.7818,-3.7869,-3.7837,-3.7831,-3.7951,-3.7967,-3.803,-3.8062,-3.8029,-3.8207,-3.8174,-3.8109,-3.8003,-3.819,-3.8264,-3.8294,-3.7896,-3.7893,-3.789,-3.7888,0,0,-3.7221,-3.7337,-3.7299,-3.7393,-3.7428,-3.7351,-3.7462,-3.7487,-3.7537,-3.7564,-3.7505,-3.7648,-3.7662,-3.7809,-3.7866,-3.7889,-3.792,-3.7853,-3.8101,-3.8125,-3.8147,-3.8226,-3.8258,-3.7883,-3.7882,-3.7881,-3.788,0,-3.7111,-3.7129,-3.7238,-3.7262,-3.7296,-3.7284,-3.7311,-3.7329,-3.7329,-3.7443,-3.7376,-3.7444,-3.7555,-3.7581,-3.7609,-3.7836,-3.7779,-3.7856,-3.7988,-3.8074,-3.8102,-3.8126,-3.821,-3.824,-3.7873,-3.7874,-3.7874,0,-3.6903,-3.6918,-3.6966,-3.704,-3.706,-3.7139,-3.7024,-3.711,-3.7168,-3.7073,-3.7187,-3.7192,-3.7222,-3.7361,-3.7423,-3.737,-3.7654,-3.7557,-3.7574,-3.758,-3.7662,-3.7695,-3.7725,-3.7336,-3.7334,-3.7332,0,0,-3.6812,-3.6886,-3.6889,-3.7014,-3.7032,-3.7013,-3.705,-3.7021,-3.7049,-3.7061,-3.7064,-3.7094,-3.7159,-3.7202,-3.7261,-3.7417,-3.7421,-3.7492,-3.7518,-3.7538,-3.7556,-3.7643,-3.7676,-3.7326,-3.7326,-3.7325,0,0,-3.6766,-3.6775,-3.6737,-3.6879,-3.691,-3.6919,-3.6997,-3.6949,-3.6999,-3.6984,-3.6934,-3.694,-3.7069,-3.7075,-3.699,-3.7222,-3.7118,-3.7137,-3.7213,-3.7245,-3.727,-3.7266,-3.687,0,0,0,0,0,-3.6641,-3.6775,-3.674,-3.676,-3.6849,-3.6939,-3.695,-3.6913,-3.6842,-3.6905,-3.6901,-3.6836,-3.702,-3.6943,-3.6963,-3.7058,-3.724,-3.7256,-3.727,-3.7404,-3.7438,-3.7466,0,0,0,0,0,0,-3.6649,-3.6673,-3.6736,-3.6751,-3.6771,-3.6934,-3.6805,-3.6799,-3.6834,-3.6821,-3.6839,-3.6837,-3.6806,-3.693,-3.6949,-3.704,-3.6864,-3.7246,-3.7259,-3.7271,-3.7416,-3.7443,-3.7466,0,0,0,0,0,-3.6655,-3.6674,-3.6827,-3.6749,-3.6766,-3.6749,-3.6799,-3.6793,-3.682,-3.6811,-3.6807,-3.6789,-3.6809,-3.6822,-3.6941,-3.7032,-3.6851,-3.6858,-3.7255,-3.7265,-3.7274,-3.7429,0,0,0,0,0,0,-3.6659,-3.6669,-3.6829,-3.6833,-3.6695,-3.6739,-3.6745,-3.6789,-3.6807,-3.6804,-3.6757,-3.6747,-3.6814,-3.6823,-3.6833,-3.7032,-3.684,-3.6847,-3.6852,-3.7262,-3.727,-3.7277,0,0,0,0,0,0,-3.6658,-3.6673,-3.6831,-3.6765,-3.676,-3.673,-3.6736,-3.6829,-3.6808,-3.6752,-3.6743,-3.6752,-3.6797,-3.6824,-3.6832,-3.6979,-3.6832,-3.6839,-3.6844,-3.6847,-3.7269,-3.7275,0,0,0,0,0,0,-3.6663,-3.6676,-3.6763,-3.676,-3.6756,-3.6796,-3.6812,-3.6904,-3.6753,-3.6752,-3.6738,-3.6732,-3.68,-3.6807,-3.6831,-3.6976,-3.6978,-3.6832,-3.6837,-3.684,-3.6842,0,0,0,0,0,0,0,-3.6668,-3.6592,-3.6807,-3.6757,-3.6753,-3.6868,-3.6869,-3.687,-3.6752,-3.6746,-3.674,-3.6735,-3.6792,-3.68,-3.6808,-3.6973,0,0,-3.6831,-3.6835,0,0,0,0,0,0,0,0,-3.6586,-3.659,-3.6807,-3.6808,-3.6809,-3.6868,-3.6869,-3.687,-3.6751,-3.6746,-3.6741,-3.6737,-3.6794,-3.68,-3.6807,0,0,0,0,0,0,0,0,0,0,0,0,0,0,0,-3.6807,-3.6808,0,-3.6868,-3.6869,-3.687,-3.675,-3.6746,-3.6742,-3.6739,-3.6796,-3.6801,-3.6806,0,0,0,0,0,0,0,0,0,0,0,0,0,0,0,0,0,0,0,0,0,0,0,0,0,0,0,0,0,0,0,0,0,0,0,0,0,0,0,0,0,0,0,0,0,0,0,0,0,0,0,0,0,0,0,0,0,0,0,0,0,0,0,0,0,0,0,0,0]}],[{"header":{"parameterUnit":"kt","parameterCategory":2,"dx":1,"dy":1,"la1":30.253999710083008,"la2":30.299108505249023,"lo1":-89.0895004272461,"lo2":-89.04439544677734,"nx":28,"ny":28,"refTime":"2022-09-20T09:00:00:Z","depth":0,"parameterNumber":2,"parameterNumberName":"V-component_of_WINDS"},"data":[-3.5735,-3.5932,-3.6005,-3.6264,-3.6373,-3.6563,-3.6655,-3.6781,-3.69,-3.7136,-3.7285,-3.7379,-3.7528,-3.7725,-3.7891,-3.793,-3.7996,-3.8013,-3.8056,-3.7914,-3.7899,-3.7885,-3.7844,-3.8025,-3.8025,-3.8194,-3.8196,-3.8197,-3.5626,-3.5736,-3.5893,-3.6096,-3.6232,-3.6261,-3.6424,-3.6537,-3.6706,-3.6854,-3.7004,-3.7219,-3.7397,-3.7544,-3.7729,-3.7825,-3.785,-3.787,-3.7866,-3.7889,-3.7739,-3.7695,-3.7847,-3.7847,-3.7846,-3.7846,-3.7846,-3.7846,-3.5447,-3.5562,-3.5727,-3.59,-3.6021,-3.6157,-3.6279,-3.6392,-3.6548,-3.6749,-3.6806,-3.7,-3.7163,-3.7422,-3.7527,-3.7682,-3.7673,-3.7719,-3.7731,-3.7742,-3.7744,-3.7495,-3.7716,-3.7716,-3.7716,-3.7715,-3.7715,0,-3.534,-3.5394,-3.555,-3.5728,-3.5857,-3.6003,-3.6149,-3.6226,-3.6365,-3.6488,-3.6673,-3.6792,-3.7028,-3.7211,-3.7401,-3.7503,-3.7547,-3.7559,-3.7591,-3.7568,-3.7523,-3.7553,-3.7308,-3.7553,-3.7551,-3.7551,-3.755,-3.755,-3.5168,-3.5292,-3.55,-3.56,-3.5698,-3.5857,-3.5968,-3.6081,-3.6193,-3.639,-3.6486,-3.667,-3.6824,-3.7109,-3.7241,-3.7418,-3.7442,-3.7528,-3.7469,-3.7441,-3.7448,-3.7441,-3.7456,-3.7538,-3.7539,-3.7541,-3.7542,0,-3.5065,-3.5184,-3.54,-3.5594,-3.5647,-3.5772,-3.5939,-3.6059,-3.6155,-3.6334,-3.6382,-3.6535,-3.6715,-3.6835,-3.7064,-3.7122,-3.7333,-3.735,-3.7278,-3.729,-3.7381,-3.7372,-3.7652,-3.7696,-3.7505,-3.7507,-3.7508,0,-3.4966,-3.5125,-3.5294,-3.5413,-3.5594,-3.5704,-3.588,-3.5981,-3.6123,-3.6264,-3.6332,-3.6464,-3.6596,-3.6746,-3.683,-3.7024,-3.7066,-3.7123,-3.7144,-3.7119,-3.7112,-3.7183,-3.7176,-3.7183,-3.7182,-3.718,-3.7179,0,-3.4794,-3.507,-3.5264,-3.5346,-3.557,-3.5658,-3.5756,-3.5915,-3.6022,-3.618,-3.6252,-3.6427,-3.6525,-3.6661,-3.6768,-3.6724,-3.7006,-3.6968,-3.7065,-3.7063,-3.7124,-3.7119,-3.7334,-3.7177,-3.7177,-3.7176,-3.7176,0,-3.4734,-3.4891,-3.5153,-3.5341,-3.5409,-3.5536,-3.5718,-3.5854,-3.6017,-3.6079,-3.6205,-3.6265,-3.6442,-3.6396,-3.6642,-3.6555,-3.6647,-3.6717,-3.6726,-3.6752,-3.6698,-3.6807,-3.6996,-3.7022,-3.6772,-3.6769,-3.6766,0,-3.4506,-3.4802,-3.4899,-3.5146,-3.53,-3.5367,-3.5511,-3.5653,-3.5747,-3.5892,-3.5996,-3.6161,-3.6151,-3.622,-3.6325,-3.6441,-3.6554,-3.6428,-3.664,-3.6647,-3.6598,-3.6773,-3.6773,-3.6941,-3.6724,-3.6729,-3.6732,0,-3.4345,-3.4614,-3.4651,-3.4751,-3.4956,-3.5085,-3.5249,-3.5436,-3.5527,-3.5678,-3.5821,-3.6053,-3.6057,-3.6169,-3.6237,-3.6341,-3.6481,-3.6331,-3.6337,-3.6357,-3.6712,-3.6712,-3.6739,-3.6504,-3.6509,-3.6513,-3.6699,0,-3.4232,-3.4395,-3.45,-3.4714,-3.4832,-3.4992,-3.5119,-3.5227,-3.528,-3.5376,-3.5586,-3.5735,-3.5926,-3.5987,-3.6041,-3.6239,-3.6226,-3.6227,-3.6194,-3.6306,-3.6371,-3.6397,-3.6087,-3.6087,-3.6086,-3.6086,0,0,-3.3986,-3.4222,-3.4323,-3.4487,-3.4593,-3.4661,-3.4821,-3.4932,-3.5155,-3.5228,-3.5209,-3.5558,-3.568,-3.5922,-3.5967,-3.6043,-3.6092,-3.6047,-3.6251,-3.6268,-3.6285,-3.6352,-3.6377,-3.6086,-3.6086,-3.6086,-3.6086,0,-3.3972,-3.4092,-3.4248,-3.4368,-3.4548,-3.4642,-3.4679,-3.4871,-3.494,-3.5145,-3.52,-3.5341,-3.5616,-3.5739,-3.5837,-3.602,-3.6055,-3.6068,-3.6125,-3.6244,-3.6262,-3.6278,-3.6347,-3.637,-3.6085,-3.6085,-3.6085,0,-3.3838,-3.3978,-3.4066,-3.4309,-3.4428,-3.4584,-3.4579,-3.4743,-3.486,-3.4928,-3.5131,-3.5231,-3.5405,-3.5616,-3.5715,-3.5702,-3.6014,-3.5937,-3.5942,-3.5957,-3.6078,-3.61,-3.6119,-3.5867,-3.5866,-3.5865,0,0,-3.3808,-3.396,-3.4146,-3.4316,-3.4387,-3.4528,-3.4623,-3.4687,-3.4841,-3.4903,-3.5032,-3.518,-3.5342,-3.5446,-3.5605,-3.5818,-3.5864,-3.5905,-3.5915,-3.5923,-3.5942,-3.6065,-3.6087,-3.586,-3.586,-3.586,0,0,-3.3795,-3.4017,-3.4044,-3.4257,-3.4401,-3.4596,-3.4696,-3.4734,-3.4889,-3.4885,-3.5001,-3.5046,-3.5245,-3.5341,-3.5261,-3.5596,-3.5559,-3.5581,-3.5526,-3.5541,-3.5551,-3.5525,-3.5278,0,0,0,0,0,-3.3846,-3.399,-3.4011,-3.4066,-3.4373,-3.4583,-3.4624,-3.4722,-3.4695,-3.4772,-3.4886,-3.4916,-3.5322,-3.5254,-3.5307,-3.5396,-3.5798,-3.5809,-3.5819,-3.5799,-3.5813,-3.5825,0,0,0,0,0,0,-3.3868,-3.3934,-3.4008,-3.4207,-3.4278,-3.4579,-3.4555,-3.4586,-3.4689,-3.4692,-3.4893,-3.4922,-3.5011,-3.5234,-3.528,-3.5362,-3.5263,-3.5802,-3.5811,-3.582,-3.5804,-3.5816,-3.5825,0,0,0,0,0,-3.3886,-3.394,-3.4406,-3.4206,-3.4267,-3.4433,-3.455,-3.4576,-3.4658,-3.4835,-3.4865,-3.4723,-3.501,-3.5056,-3.5262,-3.5339,-3.5232,-3.5249,-3.5808,-3.5816,-3.5822,-3.581,0,0,0,0,0,0,-3.39,-3.3965,-3.4421,-3.4443,-3.4159,-3.4418,-3.4462,-3.4567,-3.4796,-3.4827,-3.467,-3.467,-3.5012,-3.5047,-3.5082,-3.5325,-3.5206,-3.5224,-3.5234,-3.5814,-3.582,-3.5825,0,0,0,0,0,0,-3.3937,-3.3984,-3.4432,-3.4367,-3.4383,-3.4404,-3.4443,-3.4632,-3.4798,-3.4619,-3.4626,-3.4667,-3.496,-3.5042,-3.5069,-3.536,-3.5187,-3.5203,-3.5215,-3.5222,-3.5819,-3.5823,0,0,0,0,0,0,-3.3959,-3.3999,-3.4362,-3.4374,-3.4388,-3.4646,-3.4573,-3.4883,-3.4741,-3.4608,-3.4731,-3.4726,-3.4954,-3.4983,-3.506,-3.5339,-3.5354,-3.5187,-3.5199,-3.5207,-3.5212,0,0,0,0,0,0,0,-3.3976,-3.3685,-3.4289,-3.438,-3.4392,-3.4649,-3.4655,-3.4661,-3.474,-3.4736,-3.4732,-3.4728,-3.5093,-3.5111,-3.5129,-3.5321,0,0,-3.5186,-3.5194,0,0,0,0,0,0,0,0,-3.367,-3.3681,-3.4289,-3.4294,-3.4298,-3.465,-3.4655,-3.466,-3.4739,-3.4736,-3.4733,-3.473,-3.5098,-3.5113,-3.5127,0,0,0,0,0,0,0,0,0,0,0,0,0,0,0,-3.429,-3.4294,0,-3.4651,-3.4655,-3.4659,-3.4739,-3.4736,-3.4733,-3.4731,-3.5102,-3.5114,-3.5126,0,0,0,0,0,0,0,0,0,0,0,0,0,0,0,0,0,0,0,0,0,0,0,0,0,0,0,0,0,0,0,0,0,0,0,0,0,0,0,0,0,0,0,0,0,0,0,0,0,0,0,0,0,0,0,0,0,0,0,0,0,0,0,0,0,0,0,0,0]}]]]